Time[GMT],dominant_wave_period_2[s](0m),significant_wave_height_2[m](0m)
2018-05-10 13:00,6.40,1.43
2018-05-10 13:30,6.40,1.70
2018-05-10 14:00,6.40,1.60
2018-05-10 14:30,6.40,1.67
2018-05-10 15:00,5.33,1.69
2018-05-10 15:30,6.40,1.75
2018-05-10 16:00,6.40,1.74
2018-05-10 16:30,6.40,1.64
2018-05-10 17:00,6.40,1.64
2018-05-10 17:30,6.40,1.82
2018-05-10 18:00,6.40,1.65
2018-05-10 18:30,6.40,1.68
2018-05-10 19:00,5.33,1.59
2018-05-10 19:30,6.40,1.64
2018-05-10 20:00,6.40,1.65
2018-05-10 20:30,6.40,1.54
2018-05-10 21:00,6.40,1.47
2018-05-10 21:30,6.40,1.62
2018-05-10 22:00,6.40,1.45
2018-05-10 22:30,6.40,1.53
2018-05-10 23:00,6.40,1.43
2018-05-10 23:30,6.40,1.58
2018-05-11 00:00,6.40,1.51
2018-05-11 00:30,8.00,1.44
2018-05-11 01:00,6.40,1.50
2018-05-11 01:30,6.40,1.51
2018-05-11 02:00,6.40,1.40
2018-05-11 02:30,5.33,1.39
2018-05-11 03:00,6.40,1.33
2018-05-11 03:30,6.40,1.39
2018-05-11 04:00,6.40,1.35
2018-05-11 04:30,6.40,1.38
2018-05-11 05:00,6.40,1.30
2018-05-11 05:30,6.40,1.31
2018-05-11 06:00,6.40,1.47
2018-05-11 06:30,6.40,1.29
2018-05-11 07:00,5.33,1.35
2018-05-11 07:30,6.40,1.24
2018-05-11 08:00,6.40,1.28
2018-05-11 08:30,6.40,1.26
2018-05-11 09:00,6.40,1.33
2018-05-11 09:30,6.40,1.22
2018-05-11 10:00,6.40,1.26
2018-05-11 10:30,6.40,1.23
2018-05-11 11:00,6.40,1.23
2018-05-11 11:30,6.40,1.37
2018-05-11 12:00,6.40,1.31
2018-05-11 12:30,6.40,1.27
2018-05-11 13:00,6.40,1.32
2018-05-11 13:30,6.40,1.24
2018-05-11 14:00,6.40,1.45
2018-05-11 14:30,6.40,1.31
2018-05-11 15:00,6.40,1.27
2018-05-11 15:30,6.40,1.31
2018-05-11 16:00,6.40,1.17
2018-05-11 16:30,6.40,1.30
2018-05-11 17:00,6.40,1.29
2018-05-11 17:30,6.40,1.32
2018-05-11 18:00,6.40,1.48
2018-05-11 18:30,6.40,1.42
2018-05-11 19:00,6.40,1.27
2018-05-11 19:30,6.40,1.37
2018-05-11 20:00,6.40,1.27
2018-05-11 20:30,4.57,1.28
2018-05-11 21:00,6.40,1.40
2018-05-11 21:30,6.40,1.36
2018-05-11 22:00,6.40,1.26
2018-05-11 22:30,6.40,1.28
2018-05-11 23:00,6.40,1.31
2018-05-11 23:30,6.40,1.34
2018-05-12 00:00,6.40,1.32
2018-05-12 00:30,6.40,1.39
2018-05-12 01:00,6.40,1.25
2018-05-12 01:30,6.40,1.33
2018-05-12 02:00,6.40,1.36
2018-05-12 02:30,6.40,1.35
2018-05-12 03:00,6.40,1.42
2018-05-12 03:30,5.33,1.34
2018-05-12 04:00,6.40,1.27
2018-05-12 04:30,5.33,1.28
2018-05-12 05:00,6.40,1.15
2018-05-12 05:30,6.40,1.16
2018-05-12 06:00,6.40,1.34
2018-05-12 06:30,6.40,1.37
2018-05-12 07:00,5.33,1.33
2018-05-12 07:30,6.40,1.34
2018-05-12 08:00,6.40,1.21
2018-05-12 08:30,6.40,1.21
2018-05-12 09:00,5.33,1.11
2018-05-12 09:30,6.40,1.31
2018-05-12 10:00,5.33,1.34
2018-05-12 10:30,6.40,1.32
2018-05-12 11:00,6.40,1.28
2018-05-12 11:30,6.40,1.34
2018-05-12 12:00,5.33,1.22
2018-05-12 12:30,6.40,1.10
2018-05-12 13:00,6.40,1.28
2018-05-12 13:30,6.40,1.21
2018-05-12 14:00,6.40,1.09
2018-05-12 14:30,6.40,1.14
2018-05-12 15:00,6.40,1.16
2018-05-12 15:30,6.40,1.18
2018-05-12 16:00,6.40,1.28
2018-05-12 16:30,6.40,1.23
2018-05-12 17:00,5.33,1.41
2018-05-12 17:30,6.40,1.52
2018-05-12 18:00,6.40,1.34
2018-05-12 18:30,6.40,1.31
2018-05-12 19:00,6.40,1.28
2018-05-12 19:30,6.40,1.22
2018-05-12 20:00,6.40,1.26
2018-05-12 20:30,6.40,1.32
2018-05-12 21:00,6.40,1.25
2018-05-12 21:30,6.40,1.29
2018-05-12 22:00,6.40,1.30
2018-05-12 22:30,5.33,1.34
2018-05-12 23:00,6.40,1.25
2018-05-12 23:30,6.40,1.31
2018-05-13 00:00,6.40,1.39
2018-05-13 00:30,6.40,1.22
2018-05-13 01:00,6.40,1.39
2018-05-13 01:30,6.40,1.40
2018-05-13 02:00,6.40,1.34
2018-05-13 02:30,6.40,1.27
2018-05-13 03:00,6.40,1.30
2018-05-13 03:30,6.40,1.36
2018-05-13 04:00,6.40,1.33
2018-05-13 04:30,6.40,1.46
2018-05-13 05:00,6.40,1.50
2018-05-13 05:30,5.33,1.58
2018-05-13 06:00,5.33,1.54
2018-05-13 06:30,6.40,1.68
2018-05-13 07:00,6.40,1.66
2018-05-13 07:30,6.40,1.68
2018-05-13 08:00,6.40,1.55
2018-05-13 08:30,6.40,1.53
2018-05-13 09:00,6.40,1.63
2018-05-13 09:30,6.40,1.69
2018-05-13 10:00,6.40,1.61
2018-05-13 10:30,6.40,1.63
2018-05-13 11:00,6.40,1.63
2018-05-13 11:30,6.40,1.61
2018-05-13 12:00,6.40,1.65
2018-05-13 12:30,6.40,1.76
2018-05-13 13:00,6.40,1.73
2018-05-13 13:30,6.40,1.73
2018-05-13 14:00,6.40,1.64
2018-05-13 14:30,6.40,1.76
2018-05-13 15:00,6.40,1.71
2018-05-13 15:30,6.40,1.73
2018-05-13 16:00,5.33,1.48
2018-05-13 16:30,6.40,1.58
2018-05-13 17:00,6.40,1.55
2018-05-13 17:30,6.40,1.42
2018-05-13 18:00,6.40,1.45
2018-05-13 18:30,6.40,1.45
2018-05-13 19:00,6.40,1.53
2018-05-13 19:30,6.40,1.57
2018-05-13 20:00,6.40,1.62
2018-05-13 20:30,6.40,1.52
2018-05-13 21:00,6.40,1.36
2018-05-13 21:30,8.00,1.64
2018-05-13 22:00,6.40,1.36
2018-05-13 22:30,6.40,1.48
2018-05-13 23:00,8.00,1.56
2018-05-13 23:30,6.40,1.48
2018-05-14 00:00,6.40,1.42
2018-05-14 00:30,8.00,1.52
2018-05-14 01:00,6.40,1.54
2018-05-14 01:30,8.00,1.65
2018-05-14 02:00,6.40,1.55
2018-05-14 02:30,6.40,1.56
2018-05-14 03:00,8.00,1.48
2018-05-14 03:30,6.40,1.60
2018-05-14 04:00,6.40,1.58
2018-05-14 04:30,6.40,1.54
2018-05-14 05:00,8.00,1.62
2018-05-14 05:30,6.40,1.60
2018-05-14 06:00,6.40,1.48
2018-05-14 06:30,5.33,1.58
2018-05-14 07:00,6.40,1.64
2018-05-14 07:30,6.40,1.71
2018-05-14 08:00,6.40,1.64
2018-05-14 08:30,6.40,1.59
2018-05-14 09:00,6.40,1.56
2018-05-14 09:30,6.40,1.68
2018-05-14 10:00,6.40,1.73
2018-05-14 10:30,6.40,1.71
2018-05-14 11:00,6.40,1.67
2018-05-14 11:30,6.40,1.82
2018-05-14 12:00,6.40,1.69
2018-05-14 12:30,6.40,1.77
2018-05-14 13:00,6.40,1.66
2018-05-14 13:30,6.40,1.73
2018-05-14 14:00,6.40,1.68
2018-05-14 14:30,6.40,1.63
2018-05-14 15:00,6.40,1.70
2018-05-14 15:30,6.40,1.77
2018-05-14 16:00,6.40,1.66
2018-05-14 16:30,6.40,1.72
2018-05-14 17:00,6.40,1.64
2018-05-14 17:30,6.40,1.68
2018-05-14 18:00,6.40,1.72
2018-05-14 18:30,6.40,1.64
2018-05-14 19:00,6.40,1.76
2018-05-14 19:30,6.40,1.70
2018-05-14 20:00,6.40,1.72
2018-05-14 20:30,6.40,1.64
2018-05-14 21:00,6.40,1.77
2018-05-14 21:30,6.40,1.70
2018-05-14 22:00,6.40,1.62
2018-05-14 22:30,6.40,1.68
2018-05-14 23:00,6.40,1.58
2018-05-14 23:30,6.40,1.65
2018-05-15 00:00,6.40,1.64
2018-05-15 00:30,8.00,1.68
2018-05-15 01:00,6.40,1.62
2018-05-15 02:00,8.00,1.58
2018-05-15 02:30,8.00,1.56
2018-05-15 03:00,8.00,1.64
2018-05-15 03:30,8.00,1.49
2018-05-15 04:00,8.00,1.49
2018-05-15 04:30,8.00,1.58
2018-05-15 05:00,8.00,1.48
2018-05-15 05:30,6.40,1.57
2018-05-15 06:00,8.00,1.70
2018-05-15 06:30,8.00,1.57
2018-05-15 07:00,8.00,1.74
2018-05-15 07:30,8.00,1.61
2018-05-15 08:00,6.40,1.67
2018-05-15 08:30,8.00,1.61
2018-05-15 09:00,6.40,1.67
2018-05-15 09:30,5.33,1.52
2018-05-15 10:00,6.40,1.64
2018-05-15 10:30,6.40,1.70
2018-05-15 11:00,6.40,1.66
2018-05-15 11:30,6.40,1.79
2018-05-15 12:00,6.40,1.79
2018-05-15 12:30,6.40,1.66
2018-05-15 13:00,6.40,1.66
2018-05-15 13:30,6.40,1.75
2018-05-15 14:00,6.40,1.67
2018-05-15 14:30,8.00,1.81
2018-05-15 15:00,6.40,1.79
2018-05-15 15:30,6.40,1.77
2018-05-15 16:00,6.40,1.82
2018-05-15 16:30,6.40,1.91
2018-05-15 17:00,8.00,1.76
2018-05-15 17:30,6.40,1.83
2018-05-15 18:00,6.40,1.82
2018-05-15 18:30,6.40,1.92
2018-05-15 19:00,6.40,1.89
2018-05-15 19:30,6.40,1.82
2018-05-15 20:00,6.40,1.77
2018-05-15 20:30,6.40,1.56
2018-05-15 21:00,6.40,1.74
2018-05-15 21:30,6.40,1.76
2018-05-15 22:00,6.40,1.93
2018-05-15 22:30,6.40,1.81
2018-05-15 23:00,6.40,1.80
2018-05-15 23:30,6.40,1.64
2018-05-16 00:00,6.40,1.64
2018-05-16 00:30,6.40,1.61
2018-05-16 01:00,5.33,1.64
2018-05-16 01:30,6.40,1.61
2018-05-16 02:00,8.00,1.62
2018-05-16 02:30,6.40,1.60
2018-05-16 03:00,6.40,1.49
2018-05-16 03:30,6.40,1.46
2018-05-16 04:00,6.40,1.46
2018-05-16 04:30,6.40,1.44
2018-05-16 05:00,6.40,1.38
2018-05-16 05:30,8.00,1.41
2018-05-16 06:00,8.00,1.41
2018-05-16 06:30,8.00,1.37
2018-05-16 07:00,6.40,1.39
2018-05-16 07:30,8.00,1.33
2018-05-16 08:00,6.40,1.44
2018-05-16 08:30,6.40,1.44
2018-05-16 09:00,5.33,1.62
2018-05-16 09:30,6.40,1.74
2018-05-16 10:00,6.40,1.69
2018-05-16 10:30,6.40,1.40
2018-05-16 11:00,6.40,1.48
2018-05-16 11:30,6.40,1.52
2018-05-16 12:00,5.33,1.52
2018-05-16 12:30,6.40,1.55
2018-05-16 13:00,6.40,1.41
2018-05-16 13:30,5.33,1.41
2018-05-16 14:00,6.40,1.56
2018-05-16 14:30,6.40,1.60
2018-05-16 15:00,6.40,1.59
2018-05-16 15:30,6.40,1.55
2018-05-16 16:00,6.40,1.68
2018-05-16 16:30,6.40,1.72
2018-05-16 17:00,6.40,1.61
2018-05-16 17:30,6.40,1.55
2018-05-16 18:00,6.40,1.67
2018-05-16 18:30,6.40,1.63
2018-05-16 19:00,5.33,1.71
2018-05-16 19:30,6.40,1.65
2018-05-16 20:00,6.40,1.69
2018-05-16 20:30,6.40,1.67
2018-05-16 21:00,5.33,1.64
2018-05-16 21:30,5.33,1.60
2018-05-16 22:00,6.40,1.73
2018-05-16 22:30,6.40,1.72
2018-05-16 23:00,6.40,1.82
2018-05-16 23:30,6.40,1.67
2018-05-17 00:00,5.33,1.70
2018-05-17 00:30,6.40,1.61
2018-05-17 01:00,6.40,1.83
2018-05-17 01:30,6.40,1.80
2018-05-17 02:00,6.40,1.78
2018-05-17 02:30,6.40,1.62
2018-05-17 03:00,6.40,1.80
2018-05-17 03:30,6.40,1.72
2018-05-17 04:00,6.40,1.73
2018-05-17 04:30,6.40,1.95
2018-05-17 05:00,6.40,1.87
2018-05-17 05:30,6.40,1.91
2018-05-17 06:00,6.40,1.99
2018-05-17 06:30,6.40,1.88
2018-05-17 07:00,6.40,1.94
2018-05-17 07:30,6.40,1.92
2018-05-17 08:00,6.40,2.02
2018-05-17 08:30,6.40,1.80
2018-05-17 09:00,6.40,1.65
2018-05-17 09:30,6.40,1.81
2018-05-17 10:00,6.40,1.81
2018-05-17 10:30,6.40,1.86
2018-05-17 11:00,6.40,1.79
2018-05-17 11:30,6.40,1.80
2018-05-17 12:00,6.40,1.80
2018-05-17 12:30,6.40,1.89
2018-05-17 13:00,6.40,1.88
2018-05-17 13:30,6.40,2.01
2018-05-17 14:00,5.33,1.97
2018-05-17 14:30,8.00,1.96
2018-05-17 15:00,6.40,1.94
2018-05-17 15:30,6.40,1.68
2018-05-17 16:00,6.40,1.87
2018-05-17 16:30,6.40,1.71
2018-05-17 17:00,6.40,1.77
2018-05-17 17:30,8.00,1.68
2018-05-17 18:00,8.00,1.79
2018-05-17 18:30,6.40,1.74
2018-05-17 19:00,6.40,1.82
2018-05-17 19:30,8.00,1.97
2018-05-17 20:00,6.40,1.86
2018-05-17 20:30,6.40,1.85
2018-05-17 21:00,6.40,1.80
2018-05-17 21:30,6.40,1.96
2018-05-17 22:00,8.00,1.81
2018-05-17 22:30,8.00,1.85
2018-05-17 23:00,8.00,1.88
2018-05-17 23:30,6.40,1.91
2018-05-18 00:00,8.00,1.88
2018-05-18 00:30,6.40,1.74
2018-05-18 01:30,8.00,1.81
2018-05-18 02:00,6.40,1.60
2018-05-18 02:30,6.40,1.67
2018-05-18 03:00,6.40,1.76
2018-05-18 03:30,8.00,1.66
2018-05-18 04:00,6.40,1.59
2018-05-18 04:30,6.40,1.74
2018-05-18 05:00,6.40,1.57
2018-05-18 05:30,6.40,1.57
2018-05-18 06:00,6.40,1.54
2018-05-18 06:30,6.40,1.47
2018-05-18 07:00,6.40,1.69
2018-05-18 07:30,6.40,1.69
2018-05-18 08:00,6.40,1.62
2018-05-18 08:30,6.40,1.55
2018-05-18 09:00,6.40,1.53
2018-05-18 09:30,6.40,1.55
2018-05-18 10:00,6.40,1.60
2018-05-18 10:30,6.40,1.61
2018-05-18 11:00,6.40,1.65
2018-05-18 11:30,6.40,1.57
2018-05-18 12:00,6.40,1.51
2018-05-18 12:30,6.40,1.59
2018-05-18 13:00,8.00,1.62
2018-05-18 13:30,8.00,1.72
2018-05-18 14:00,6.40,1.75
2018-05-18 14:30,6.40,1.74
2018-05-18 15:00,6.40,1.91
2018-05-18 15:30,6.40,1.84
2018-05-18 16:00,6.40,1.94
2018-05-18 16:30,8.00,1.91
2018-05-18 17:00,6.40,1.80
2018-05-18 17:30,6.40,1.99
2018-05-18 18:00,6.40,2.00
2018-06-06 22:00,6.40,1.23
2018-06-06 22:30,6.40,1.21
2018-06-06 23:00,6.40,1.19
2018-06-06 23:30,6.40,1.20
2018-06-07 00:00,6.40,1.15
2018-06-07 00:30,6.40,1.14
2018-06-07 01:00,6.40,1.21
2018-06-07 01:30,6.40,1.20
2018-06-07 02:00,6.40,1.12
2018-06-07 02:30,6.40,1.31
2018-06-07 03:00,6.40,1.17
2018-06-07 03:30,6.40,1.23
2018-06-07 04:00,6.40,1.14
2018-06-07 04:30,6.40,1.26
2018-06-07 05:00,6.40,1.15
2018-06-07 05:30,6.40,1.13
2018-06-07 06:00,6.40,1.15
2018-06-07 06:30,6.40,1.11
2018-06-07 07:00,6.40,1.11
2018-06-07 07:30,6.40,1.23
2018-06-07 08:00,6.40,1.31
2018-06-07 08:30,6.40,1.29
2018-06-07 09:00,6.40,1.20
2018-06-07 09:30,6.40,1.27
2018-06-07 10:00,6.40,1.34
2018-06-07 10:30,6.40,1.28
2018-06-07 11:00,6.40,1.19
2018-06-07 11:30,6.40,1.36
2018-06-07 12:00,6.40,1.35
2018-06-07 12:30,6.40,1.44
2018-06-07 13:00,6.40,1.50
2018-06-07 13:30,6.40,1.44
2018-06-07 14:00,6.40,1.43
2018-06-07 14:30,6.40,1.42
2018-06-07 15:00,6.40,1.49
2018-06-07 15:30,6.40,1.58
2018-06-07 16:00,6.40,1.55
2018-06-07 16:30,6.40,1.59
2018-06-07 17:00,6.40,1.45
2018-06-07 17:30,6.40,1.41
2018-06-07 18:00,6.40,1.55
2018-06-07 18:30,6.40,1.41
2018-06-07 19:00,6.40,1.38
2018-06-07 19:30,6.40,1.41
2018-06-07 20:00,6.40,1.39
2018-06-07 20:30,6.40,1.42
2018-06-07 21:00,6.40,1.29
2018-06-07 21:30,6.40,1.37
2018-06-07 22:00,6.40,1.34
2018-06-07 22:30,8.00,1.36
2018-06-07 23:00,6.40,1.47
2018-06-07 23:30,6.40,1.32
2018-06-08 00:00,8.00,1.39
2018-06-08 00:30,6.40,1.45
2018-06-08 01:00,6.40,1.46
2018-06-08 01:30,6.40,1.32
2018-06-08 02:00,8.00,1.29
2018-06-08 02:30,6.40,1.23
2018-06-08 03:00,6.40,1.39
2018-06-08 03:30,8.00,1.40
2018-06-08 04:00,6.40,1.38
2018-06-08 04:30,8.00,1.37
2018-06-08 05:00,8.00,1.46
2018-06-08 05:30,6.40,1.43
2018-06-08 06:00,8.00,1.40
2018-06-08 06:30,6.40,1.36
2018-06-08 07:00,6.40,1.30
2018-06-08 07:30,6.40,1.24
2018-06-08 08:00,6.40,1.23
2018-06-08 08:30,6.40,1.20
2018-06-08 09:00,6.40,1.27
2018-06-08 09:30,6.40,1.29
2018-06-08 10:00,6.40,1.25
2018-06-08 10:30,6.40,1.27
2018-06-08 11:00,6.40,1.25
2018-06-08 11:30,6.40,1.36
2018-06-08 12:00,6.40,1.56
2018-06-08 12:30,6.40,1.42
2018-06-08 13:00,6.40,1.56
2018-06-08 13:30,6.40,1.46
2018-06-08 14:00,6.40,1.61
2018-06-08 14:30,6.40,1.71
2018-06-08 15:00,6.40,1.60
2018-06-08 15:30,5.33,1.47
2018-06-08 16:00,6.40,1.50
2018-06-08 16:30,6.40,1.57
2018-06-08 17:00,6.40,1.46
2018-06-08 17:30,5.33,1.44
2018-06-08 18:00,6.40,1.47
2018-06-08 18:30,6.40,1.46
2018-06-08 19:00,6.40,1.49
2018-06-08 19:30,4.57,1.65
2018-06-08 20:00,6.40,1.55
2018-06-08 20:30,6.40,1.60
2018-06-08 21:00,4.57,1.67
2018-06-08 21:30,6.40,1.64
2018-06-08 22:00,6.40,1.55
2018-06-08 22:30,6.40,1.59
2018-06-08 23:00,6.40,1.53
2018-06-08 23:30,6.40,1.50
2018-06-09 00:00,6.40,1.46
2018-06-09 00:30,5.33,1.46
2018-06-09 01:00,6.40,1.56
2018-06-09 01:30,5.33,1.41
2018-06-09 02:00,6.40,1.51
2018-06-09 02:30,6.40,1.46
2018-06-09 03:00,6.40,1.35
2018-06-09 03:30,6.40,1.34
2018-06-09 04:00,8.00,1.53
2018-06-09 04:30,6.40,1.36
2018-06-09 05:00,6.40,1.55
2018-06-09 05:30,6.40,1.46
2018-06-09 06:00,6.40,1.31
2018-06-09 06:30,5.33,1.42
2018-06-09 07:00,6.40,1.56
2018-06-09 07:30,6.40,1.54
2018-06-09 08:00,6.40,1.42
2018-06-09 08:30,6.40,1.43
2018-06-09 09:00,6.40,1.42
2018-06-09 09:30,6.40,1.35
2018-06-09 10:00,6.40,1.52
2018-06-09 10:30,6.40,1.49
2018-06-09 11:00,5.33,1.53
2018-06-09 11:30,6.40,1.50
2018-06-09 12:00,6.40,1.40
2018-06-09 12:30,6.40,1.46
2018-06-09 13:00,6.40,1.48
2018-06-09 13:30,6.40,1.47
2018-06-09 14:00,6.40,1.51
2018-06-09 14:30,5.33,1.54
2018-06-09 15:00,6.40,1.62
2018-06-09 15:30,6.40,1.48
2018-06-09 16:00,6.40,1.49
2018-06-09 16:30,5.33,1.40
2018-06-09 17:00,5.33,1.73
2018-06-09 17:30,6.40,1.63
2018-06-09 18:00,5.33,1.49
2018-06-09 18:30,6.40,1.45
2018-06-09 19:00,6.40,1.41
2018-06-09 19:30,6.40,1.52
2018-06-09 20:00,6.40,1.57
2018-06-09 20:30,6.40,1.55
2018-06-09 21:00,4.57,1.59
2018-06-09 21:30,6.40,1.58
2018-06-09 22:00,6.40,1.54
2018-06-09 22:30,5.33,1.57
2018-06-09 23:00,5.33,1.62
2018-06-09 23:30,6.40,1.52
2018-06-10 00:00,5.33,1.59
2018-06-10 00:30,4.57,1.52
2018-06-10 01:00,6.40,1.69
2018-06-10 01:30,6.40,1.56
2018-06-10 02:00,5.33,1.50
2018-06-10 02:30,5.33,1.59
2018-06-10 03:00,5.33,1.61
2018-06-10 03:30,6.40,1.53
2018-06-10 04:00,6.40,1.57
2018-06-10 04:30,6.40,1.58
2018-06-10 05:00,5.33,1.64
2018-06-10 05:30,6.40,1.55
2018-06-10 06:00,6.40,1.58
2018-06-10 06:30,6.40,1.48
2018-06-10 07:00,6.40,1.50
2018-06-10 07:30,6.40,1.60
2018-06-10 08:00,6.40,1.44
2018-06-10 08:30,6.40,1.37
2018-06-10 09:00,6.40,1.33
2018-06-10 09:30,6.40,1.36
2018-06-10 10:30,8.00,1.41
2018-06-10 11:00,6.40,1.58
2018-06-10 11:30,6.40,1.52
2018-06-10 12:00,6.40,1.60
2018-06-10 12:30,8.00,1.54
2018-06-10 13:00,6.40,1.48
2018-06-10 13:30,6.40,1.42
2018-06-10 14:00,6.40,1.55
2018-06-10 14:30,6.40,1.51
2018-06-10 15:00,6.40,1.48
2018-06-10 15:30,6.40,1.50
2018-06-10 16:00,6.40,1.45
2018-06-10 16:30,6.40,1.44
2018-06-10 17:00,6.40,1.35
2018-06-10 17:30,6.40,1.47
2018-06-10 18:00,5.33,1.33
2018-06-10 18:30,6.40,1.29
2018-06-10 19:00,6.40,1.42
2018-06-10 19:30,6.40,1.39
2018-06-10 20:00,6.40,1.37
2018-06-10 20:30,6.40,1.47
2018-06-10 21:00,6.40,1.26
2018-06-10 21:30,6.40,1.31
2018-06-10 22:00,6.40,1.29
2018-06-10 22:30,6.40,1.30
2018-06-10 23:00,6.40,1.33
2018-06-10 23:30,4.57,1.30
2018-06-11 00:00,6.40,1.23
2018-06-11 00:30,6.40,1.35
2018-06-11 01:00,4.57,1.33
2018-06-11 01:30,6.40,1.24
2018-06-11 02:00,6.40,1.30
2018-06-11 02:30,6.40,1.38
2018-06-11 03:00,6.40,1.28
2018-06-11 03:30,6.40,1.31
2018-06-11 04:00,6.40,1.24
2018-06-11 04:30,6.40,1.33
2018-06-11 05:00,6.40,1.44
2018-06-11 05:30,6.40,1.45
2018-06-11 06:00,6.40,1.53
2018-06-11 06:30,6.40,1.46
2018-06-11 07:00,6.40,1.58
2018-06-11 07:30,6.40,1.49
2018-06-11 08:00,6.40,1.48
2018-06-11 08:30,6.40,1.53
2018-06-11 09:00,6.40,1.51
2018-06-11 09:30,6.40,1.63
2018-06-11 10:00,6.40,1.57
2018-06-11 10:30,6.40,1.37
2018-06-11 11:00,6.40,1.52
2018-06-11 11:30,6.40,1.57
2018-06-11 12:00,6.40,1.60
2018-06-11 12:30,6.40,1.68
2018-06-11 13:00,5.33,1.60
2018-06-11 13:30,6.40,1.62
2018-06-11 14:00,6.40,1.63
2018-06-11 14:30,6.40,1.68
2018-06-11 15:00,6.40,1.60
2018-06-11 15:30,6.40,1.62
2018-06-11 16:00,6.40,1.55
2018-06-11 16:30,6.40,1.61
2018-06-11 17:00,8.00,1.60
2018-06-11 17:30,6.40,1.73
2018-06-11 18:00,6.40,1.51
2018-06-11 18:30,6.40,1.50
2018-06-11 19:00,6.40,1.58
2018-06-11 19:30,6.40,1.60
2018-06-11 20:00,6.40,1.60
2018-06-11 20:30,6.40,1.51
2018-06-11 21:00,6.40,1.53
2018-06-11 21:30,8.00,1.49
2018-06-11 22:00,6.40,1.63
2018-06-11 22:30,6.40,1.49
2018-06-11 23:00,8.00,1.48
2018-06-11 23:30,6.40,1.47
2018-06-12 00:00,8.00,1.49
2018-06-12 00:30,8.00,1.56
2018-06-12 01:00,8.00,1.64
2018-06-12 01:30,8.00,1.65
2018-06-12 02:00,8.00,1.43
2018-06-12 02:30,8.00,1.49
2018-06-12 03:00,8.00,1.51
2018-06-12 03:30,8.00,1.43
2018-06-12 04:00,6.40,1.47
2018-06-12 04:30,6.40,1.58
2018-06-12 05:00,8.00,1.46
2018-06-12 05:30,8.00,1.69
2018-06-12 06:00,8.00,1.72
2018-06-12 06:30,6.40,1.64
2018-06-12 07:00,8.00,1.68
2018-06-12 07:30,6.40,1.43
2018-06-12 08:00,6.40,1.63
2018-06-12 08:30,8.00,1.55
2018-06-12 09:00,8.00,1.54
2018-06-12 09:30,5.33,1.52
2018-06-12 10:00,8.00,1.61
2018-06-12 10:30,8.00,1.61
2018-06-12 11:00,6.40,1.52
2018-06-12 11:30,8.00,1.67
2018-06-12 12:00,8.00,1.70
2018-06-12 12:30,6.40,1.75
2018-06-12 13:00,8.00,1.62
2018-06-12 13:30,6.40,1.70
2018-06-12 14:00,8.00,1.62
2018-06-12 14:30,8.00,1.62
2018-06-12 15:00,4.57,1.62
2018-06-12 15:30,5.33,1.58
2018-06-12 16:00,6.40,1.71
2018-06-12 16:30,6.40,1.64
2018-06-12 17:00,6.40,1.64
2018-06-12 17:30,5.33,1.75
2018-07-06 22:00,6.40,1.51
2018-07-06 22:30,4.57,1.57
2018-07-06 23:00,6.40,1.54
2018-07-06 23:30,6.40,1.59
2018-07-07 00:00,6.40,1.57
2018-07-07 00:30,6.40,1.55
2018-07-07 01:00,5.33,1.48
2018-07-07 01:30,6.40,1.45
2018-07-07 02:00,6.40,1.43
2018-07-07 02:30,6.40,1.50
2018-07-07 03:00,8.00,1.51
2018-07-07 03:30,6.40,1.55
2018-07-07 04:00,6.40,1.57
2018-07-07 04:30,6.40,1.60
2018-07-07 05:00,6.40,1.53
2018-07-07 05:30,6.40,1.52
2018-07-07 06:00,6.40,1.54
2018-07-07 06:30,6.40,1.40
2018-07-07 07:00,6.40,1.49
2018-07-07 07:30,6.40,1.56
2018-07-07 08:00,6.40,1.62
2018-07-07 08:30,6.40,1.52
2018-07-07 09:00,6.40,1.60
2018-07-07 09:30,6.40,1.62
2018-07-07 10:00,6.40,1.68
2018-07-07 10:30,6.40,1.61
2018-07-07 11:00,6.40,1.78
2018-07-07 11:30,6.40,1.77
2018-07-07 12:00,6.40,1.81
2018-07-07 12:30,6.40,1.80
2018-07-07 13:00,6.40,1.75
2018-07-07 13:30,6.40,1.92
2018-07-07 14:00,6.40,1.96
2018-07-07 14:30,6.40,1.91
2018-07-07 15:00,6.40,1.90
2018-07-07 15:30,6.40,1.94
2018-07-07 16:00,6.40,1.99
2018-07-07 16:30,6.40,1.85
2018-07-07 17:00,6.40,1.92
2018-07-07 17:30,5.33,1.95
2018-07-07 18:00,6.40,1.83
2018-07-07 18:30,5.33,1.84
2018-07-07 19:00,5.33,1.76
2018-07-07 19:30,6.40,1.86
2018-07-07 20:00,6.40,1.91
2018-07-07 20:30,6.40,1.88
2018-07-07 21:00,6.40,1.73
2018-07-07 21:30,6.40,1.66
2018-07-07 22:00,6.40,1.67
2018-07-07 22:30,6.40,1.69
2018-07-07 23:00,6.40,1.65
2018-07-07 23:30,6.40,1.54
2018-07-08 00:00,6.40,1.60
2018-07-08 00:30,6.40,1.65
2018-07-08 01:00,6.40,1.59
2018-07-08 01:30,5.33,1.58
2018-07-08 02:00,6.40,1.61
2018-07-08 02:30,6.40,1.49
2018-07-08 03:00,6.40,1.46
2018-07-08 03:30,5.33,1.39
2018-07-08 04:00,5.33,1.44
2018-07-08 04:30,6.40,1.37
2018-07-08 05:00,6.40,1.38
2018-07-08 05:30,6.40,1.43
2018-07-08 06:00,6.40,1.38
2018-07-08 06:30,6.40,1.36
2018-07-08 07:00,6.40,1.38
2018-07-08 07:30,6.40,1.25
2018-07-08 08:00,6.40,1.34
2018-07-08 08:30,6.40,1.35
2018-07-08 09:00,6.40,1.28
2018-07-08 09:30,6.40,1.38
2018-07-08 10:00,6.40,1.21
2018-07-08 10:30,6.40,1.27
2018-07-08 11:00,6.40,1.21
2018-07-08 11:30,6.40,1.36
2018-07-08 12:00,6.40,1.31
2018-07-08 12:30,6.40,1.37
2018-07-08 13:00,6.40,1.45
2018-07-08 13:30,6.40,1.45
2018-07-08 14:00,6.40,1.56
2018-07-08 14:30,6.40,1.72
2018-07-08 15:00,6.40,1.63
2018-07-08 15:30,6.40,1.69
2018-07-08 16:00,6.40,1.62
2018-07-08 16:30,5.33,1.76
2018-07-08 17:00,6.40,1.73
2018-07-08 17:30,5.33,1.83
2018-07-08 18:00,6.40,1.90
2018-07-08 18:30,6.40,1.86
2018-07-08 19:00,6.40,1.78
2018-07-08 19:30,6.40,1.76
2018-07-08 20:00,6.40,1.80
2018-07-08 20:30,6.40,1.72
2018-07-08 21:00,6.40,1.69
2018-07-08 21:30,6.40,1.61
2018-07-08 22:00,6.40,1.58
2018-07-08 22:30,6.40,1.67
2018-07-08 23:00,5.33,1.50
2018-07-08 23:30,6.40,1.50
2018-07-09 00:00,6.40,1.52
2018-07-09 00:30,6.40,1.42
2018-07-09 01:00,6.40,1.53
2018-07-09 01:30,6.40,1.43
2018-07-09 02:00,6.40,1.49
2018-07-09 02:30,6.40,1.38
2018-07-09 03:00,6.40,1.24
2018-07-09 03:30,5.33,1.45
2018-07-09 04:00,6.40,1.35
2018-07-09 04:30,6.40,1.48
2018-07-09 05:00,6.40,1.35
2018-07-09 05:30,6.40,1.23
2018-07-09 06:00,5.33,1.24
2018-07-09 06:30,8.00,1.23
2018-07-09 07:00,6.40,1.28
2018-07-09 07:30,6.40,1.15
2018-07-09 08:00,6.40,1.17
2018-07-09 08:30,6.40,1.29
2018-07-09 09:00,6.40,1.15
2018-07-09 09:30,6.40,1.22
2018-07-09 10:00,6.40,1.25
2018-07-09 10:30,6.40,1.27
2018-07-09 11:00,6.40,1.25
2018-07-09 11:30,6.40,1.26
2018-07-09 12:00,6.40,1.27
2018-07-09 12:30,6.40,1.18
2018-07-09 13:00,6.40,1.18
2018-07-09 13:30,6.40,1.12
2018-07-09 14:00,6.40,1.32
2018-07-09 14:30,6.40,1.40
2018-07-09 15:00,6.40,1.55
2018-07-09 15:30,6.40,1.52
2018-07-09 16:00,5.33,1.68
2018-07-09 16:30,6.40,1.62
2018-07-09 17:00,6.40,2.07
2018-07-09 17:30,6.40,2.33
2018-07-09 18:00,6.40,2.27
2018-07-09 18:30,6.40,2.16
2018-07-09 19:00,5.33,2.14
2018-07-09 19:30,8.00,2.18
2018-07-09 20:00,6.40,2.12
2018-07-09 20:30,8.00,2.20
2018-07-09 21:00,8.00,2.07
2018-07-09 21:30,8.00,2.07
2018-07-09 22:00,6.40,2.28
2018-07-09 22:30,8.00,1.94
2018-07-09 23:00,8.00,1.87
2018-07-09 23:30,8.00,1.85
2018-07-10 00:00,8.00,1.93
2018-07-10 00:30,6.40,1.71
2018-07-10 01:00,6.40,1.64
2018-07-10 01:30,6.40,1.56
2018-07-10 02:00,6.40,1.53
2018-07-10 02:30,8.00,1.56
2018-07-10 03:00,8.00,1.47
2018-07-10 03:30,8.00,1.46
2018-07-10 04:00,5.33,1.32
2018-07-10 04:30,8.00,1.52
2018-07-10 05:00,5.33,1.43
2018-07-10 05:30,4.57,1.66
2018-07-10 06:00,5.33,1.54
2018-07-10 06:30,5.33,1.55
2018-07-10 07:00,5.33,1.42
2018-07-10 07:30,5.33,1.29
2018-07-10 08:00,5.33,1.42
2018-07-10 08:30,4.57,1.48
2018-07-10 09:00,5.33,1.56
2018-07-10 09:30,5.33,1.61
2018-07-10 10:00,5.33,1.62
2018-07-10 10:30,5.33,1.66
2018-07-10 11:00,5.33,1.68
2018-07-10 11:30,6.40,1.65
2018-07-10 12:00,6.40,1.55
2018-07-10 12:30,6.40,1.78
2018-07-10 13:00,6.40,1.65
2018-07-10 13:30,6.40,1.70
2018-07-10 14:00,6.40,1.72
2018-07-10 14:30,6.40,1.53
2018-07-10 15:00,6.40,1.70
2018-07-10 15:30,6.40,1.72
2018-07-10 16:00,6.40,1.69
2018-07-10 16:30,6.40,1.67